This is the latest recevied weather packets stored in our database for station/object F1AGU-13. If no packets are shown the sender has not sent any weather packets the latest 10 day(s).
| Time | Temp. | Humidity | Pressure | Rain* | Wind** | Luminosity | Snow |
|---|---|---|---|---|---|---|---|
| 1778166317 | 13.89° C | 73% | 1013.7 hPa | 0 mm | - | - | - |
| 1778165716 | 13.89° C | 71% | 1013.8 hPa | 0 mm | - | - | - |
| 1778165117 | 13.89° C | 73% | 1013.8 hPa | 0 mm | - | - | - |
| 1778164517 | 13.89° C | 72% | 1014 hPa | 0 mm | - | - | - |
| 1778163917 | 13.33° C | 71% | 1014.1 hPa | 0 mm | - | - | - |
| 1778163317 | 13.33° C | 73% | 1014 hPa | 0 mm | - | - | - |
| 1778162716 | 13.89° C | 71% | 1013.9 hPa | 0 mm | - | - | - |
| 1778162116 | 13.89° C | 71% | 1014 hPa | 0 mm | - | - | - |
| 1778161516 | 13.89° C | 68% | 1014.1 hPa | 0 mm | - | - | - |
| 1778160916 | 13.89° C | 68% | 1014.2 hPa | 0 mm | - | - | - |
| 1778160316 | 14.44° C | 71% | 1014.5 hPa | 0 mm | - | - | - |
| 1778159716 | 14.44° C | 65% | 1014.5 hPa | 0 mm | - | - | - |
| 1778159116 | 15° C | 65% | 1014.6 hPa | 0 mm | - | - | - |
| 1778158516 | 14.44° C | 68% | 1014.7 hPa | 0 mm | - | - | - |
| 1778157988 | 14.44° C | 70% | 1014.6 hPa | 0 mm | - | - | - |
| 1778157916 | 14.44° C | 70% | 1014.6 hPa | 0 mm | - | - | - |
| 1778157316 | 14.44° C | 69% | 1014.4 hPa | 0 mm | - | - | - |
| 1778156716 | 14.44° C | 67% | 1014.5 hPa | 0 mm | - | - | - |
| 1778156126 | 13.89° C | 71% | 1014.8 hPa | 0 mm | - | - | - |
| 1778156116 | 13.89° C | 71% | 1014.8 hPa | 0 mm | - | - | - |
| 1778155516 | 13.89° C | 69% | 1014.8 hPa | 0 mm | - | - | - |
| 1778154916 | 13.33° C | 69% | 1014.7 hPa | 0 mm | - | - | - |
| 1778154319 | 14.44° C | 67% | 1014.9 hPa | 0 mm | - | - | - |
| 1778154316 | 14.44° C | 67% | 1014.9 hPa | 0 mm | - | - | - |
| 1778153716 | 14.44° C | 72% | 1014.9 hPa | 0 mm | - | - | - |
* Rain latest hour (hover to see other rain measurements)
** Current wind speed in m/s (hover to see current wind gust speed)